COSMOS 2426 (717)

Last updated on Nov. 12, 2019, 4:19 a.m. UTC

1 29671U 06062B   19315.42649469 -.00000011  00000-0  10000-3 0  9999
2 29671  65.0554 275.3127 0020633 178.8746 270.6218  2.12961952100233
UTC
Height (km)
Latitude
Longitude
Inclination
Orbital Period
UTC large
Height (km)
Speed (km/s)
/
Latitude / Longitude
Inclination (degrees)
Orbital Period (minutes)
Azimuth
Elevation
Range (km)
Doppler Factor
iOS Compass Heading
iOS Angle

Next 30 passes for location: Hong Kong

Rise time Rise Azimuth (degrees) Set time Set Azimuth (degrees) Duration Max altitude (degrees)

No matching passes for this satellites